When you browse on this site, cookies collect data to enhance your experience and personalize the content and advertising you see.
Visit our Privacy Policy to learn more. By continuing to use the site, you agree to this use of cookies and data.
  • In Hungary
  • List of Countries
  • For 7 days
  • Water Temperature
  • Satellite Maps
  • Weather Map
  • News
  • Weather Widgets
  • user-avatar
    Login

    Hourly Weather Wincentow

    Today, 15 December, Saturday

    Time Temperature Precipitation Wind Pressure Humidity
    00:00 -2°C° 0 mm 2 mps 761 mmHg 92%
    01:00 -2°C° 0 mm 2 mps 761 mmHg 92%
    02:00 -2°C° 0 mm 2 mps 761 mmHg 92%
    03:00 -2°C° 0 mm 2 mps 761 mmHg 92%
    04:00 -2°C° 0 mm 3 mps 761 mmHg 92%
    05:00 -2°C° 0 mm 3 mps 761 mmHg 92%
    06:00 -2°C° 0 mm 3 mps 762 mmHg 92%
    07:00 -4°C° 0 mm 3 mps 762 mmHg 92%
    08:00 -2°C° 0 mm 3 mps 762 mmHg 88%
    09:00 -2°C° 0 mm 3 mps 762 mmHg 84%
    10:00 -2°C° 0 mm 4 mps 762 mmHg 81%
    11:00 -2°C° 0 mm 4 mps 762 mmHg 78%
    12:00 -2°C° 0 mm 4 mps 762 mmHg 76%
    13:00 -1°C° 0 mm 4 mps 762 mmHg 74%
    14:00 -2°C° 0 mm 4 mps 762 mmHg 76%
    15:00 -2°C° 0 mm 4 mps 762 mmHg 79%
    16:00 -3°C° 0 mm 4 mps 762 mmHg 82%
    17:00 -3°C° 0 mm 4 mps 762 mmHg 81%
    18:00 -3°C° 0 mm 4 mps 761 mmHg 80%
    19:00 -3°C° 0 mm 4 mps 761 mmHg 79%
    20:00 -4°C° 0 mm 5 mps 761 mmHg 79%
    21:00 -4°C° 0 mm 5 mps 761 mmHg 78%
    22:00 -4°C° 0 mm 5 mps 761 mmHg 78%
    23:00 -4°C° 0.1 mm 5 mps 760 mmHg 79%

    Tomorrow, 16 December, Sunday

    Time Temperature Precipitation Wind Pressure Humidity
    00:00 -4°C° 0.1 mm 5 mps 760 mmHg 80%
    01:00 -4°C° 0.1 mm 5 mps 760 mmHg 81%
    02:00 -4°C° 0.2 mm 6 mps 759 mmHg 82%
    03:00 -4°C° 0.2 mm 6 mps 758 mmHg 83%
    04:00 -5°C° 0.2 mm 6 mps 758 mmHg 84%
    05:00 -5°C° 0.2 mm 6 mps 758 mmHg 84%
    06:00 -5°C° 0.2 mm 6 mps 757 mmHg 85%
    07:00 -5°C° 0.2 mm 6 mps 757 mmHg 85%
    08:00 -4°C° 0.3 mm 6 mps 757 mmHg 86%
    09:00 -4°C° 0.3 mm 6 mps 757 mmHg 86%
    10:00 -4°C° 0.3 mm 6 mps 757 mmHg 87%
    11:00 -4°C° 0.5 mm 5 mps 756 mmHg 88%
    12:00 -4°C° 0.5 mm 5 mps 756 mmHg 90%
    13:00 -4°C° 0.5 mm 5 mps 755 mmHg 91%
    14:00 -3°C° 0.4 mm 4 mps 755 mmHg 91%
    15:00 -3°C° 0.4 mm 4 mps 755 mmHg 92%
    16:00 -3°C° 0.4 mm 4 mps 755 mmHg 92%
    17:00 -2°C° 0.1 mm 3 mps 755 mmHg 92%
    18:00 -2°C° 0.1 mm 3 mps 755 mmHg 93%
    19:00 -2°C° 0.1 mm 3 mps 755 mmHg 93%
    20:00 -2°C° 0 mm 3 mps 755 mmHg 93%
    21:00 -2°C° 0 mm 3 mps 755 mmHg 93%
    22:00 -4°C° 0 mm 3 mps 755 mmHg 94%
    23:00 -4°C° 0 mm 3 mps 755 mmHg 94%

    Day after tomorrow, 17 December, Monday

    Time Temperature Precipitation Wind Pressure Humidity
    00:00 -4°C° 0 mm 3 mps 755 mmHg 94%
    01:00 -4°C° 0 mm 3 mps 755 mmHg 94%
    02:00 -4°C° 0 mm 3 mps 755 mmHg 93%
    03:00 -4°C° 0 mm 3 mps 755 mmHg 93%
    04:00 -4°C° 0 mm 3 mps 755 mmHg 93%
    05:00 -3°C° 0 mm 2 mps 755 mmHg 92%
    06:00 -3°C° 0 mm 2 mps 756 mmHg 91%
    07:00 -3°C° 0 mm 2 mps 756 mmHg 91%
    08:00 -2°C° 0 mm 2 mps 756 mmHg 89%
    09:00 -2°C° 0 mm 2 mps 756 mmHg 88%
    10:00 -1°C° 0 mm 2 mps 757 mmHg 86%
    11:00 -1°C° 0 mm 2 mps 757 mmHg 86%
    12:00 -1°C° 0 mm 2 mps 757 mmHg 86%
    13:00 +2°C° 0 mm 1 mps 757 mmHg 87%
    14:00 +1°C° 0 mm 1 mps 758 mmHg 87%
    15:00 0°C° 0 mm 1 mps 758 mmHg 88%
    16:00 -1°C° 0 mm 1 mps 758 mmHg 89%
    17:00 -2°C° 0 mm 0 mps 759 mmHg 90%
    18:00 -2°C° 0 mm 0 mps 759 mmHg 90%
    19:00 -2°C° 0 mm 0 mps 759 mmHg 90%
    20:00 -2°C° 0 mm 0 mps 760 mmHg 90%
    21:00 -1°C° 0 mm 1 mps 760 mmHg 90%
    22:00 -1°C° 0 mm 1 mps 760 mmHg 90%
    23:00 -1°C° 0 mm 1 mps 760 mmHg 90%

    18 December, Tuesday

    Time Temperature Precipitation Wind Pressure Humidity
    00:00 -1°C° 0 mm 1 mps 761 mmHg 90%
    01:00 -2°C° 0 mm 0 mps 761 mmHg 90%
    02:00 -3°C° 0 mm 0 mps 761 mmHg 91%
    03:00 -3°C° 0 mm 0 mps 761 mmHg 91%
    04:00 -3°C° 0 mm 0 mps 761 mmHg 91%
    05:00 -2°C° 0 mm 1 mps 761 mmHg 91%
    06:00 -2°C° 0 mm 1 mps 761 mmHg 91%
    07:00 -2°C° 0 mm 1 mps 762 mmHg 91%
    08:00 -1°C° 0 mm 1 mps 762 mmHg 91%
    09:00 -1°C° 0 mm 1 mps 762 mmHg 90%
    10:00 0°C° 0 mm 1 mps 762 mmHg 89%
    11:00 0°C° 0 mm 1 mps 762 mmHg 89%
    12:00 +1°C° 0 mm 1 mps 762 mmHg 89%
    13:00 +1°C° 0 mm 1 mps 762 mmHg 89%
    14:00 +1°C° 0 mm 1 mps 762 mmHg 90%
    15:00 -2°C° 0 mm 2 mps 762 mmHg 91%
    16:00 -2°C° 0 mm 2 mps 762 mmHg 93%
    17:00 -3°C° 0 mm 2 mps 761 mmHg 93%
    18:00 -3°C° 0 mm 2 mps 761 mmHg 93%
    19:00 -4°C° 0 mm 2 mps 761 mmHg 94%
    20:00 -5°C° 0 mm 3 mps 761 mmHg 93%
    21:00 -5°C° 0 mm 3 mps 761 mmHg 93%
    22:00 -5°C° 0 mm 3 mps 761 mmHg 93%
    23:00 -5°C° 0 mm 3 mps 761 mmHg 92%

    19 December, Wednesday

    Time Temperature Precipitation Wind Pressure Humidity
    00:00 -5°C° 0 mm 3 mps 761 mmHg 92%
    01:00 -5°C° 0 mm 3 mps 760 mmHg 92%
    02:00 -5°C° 0 mm 3 mps 760 mmHg 92%
    03:00 -5°C° 0 mm 3 mps 760 mmHg 92%
    04:00 -5°C° 0 mm 3 mps 759 mmHg 92%
    05:00 -5°C° 0 mm 3 mps 759 mmHg 93%
    06:00 -5°C° 0 mm 4 mps 759 mmHg 93%
    07:00 -5°C° 0 mm 4 mps 759 mmHg 93%
    08:00 -5°C° 0 mm 4 mps 759 mmHg 92%
    09:00 -5°C° 0 mm 5 mps 759 mmHg 91%
    10:00 -5°C° 0 mm 5 mps 759 mmHg 90%
    11:00 -4°C° 0 mm 5 mps 758 mmHg 89%
    12:00 -4°C° 0 mm 5 mps 757 mmHg 89%
    13:00 -2°C° 0 mm 5 mps 757 mmHg 88%
    14:00 -4°C° 0 mm 5 mps 757 mmHg 89%
    15:00 -4°C° 0 mm 5 mps 756 mmHg 90%
    16:00 -4°C° 0 mm 5 mps 756 mmHg 91%
    17:00 -4°C° 0 mm 5 mps 756 mmHg 91%
    18:00 -4°C° 0 mm 5 mps 756 mmHg 91%
    19:00 -4°C° 0 mm 5 mps 756 mmHg 91%
    20:00 -3°C° 0 mm 4 mps 755 mmHg 90%
    21:00 -3°C° 0 mm 4 mps 755 mmHg 90%
    22:00 -3°C° 0 mm 4 mps 755 mmHg 90%
    23:00 -3°C° 0 mm 4 mps 755 mmHg 90%

    20 December, Thursday

    Time Temperature Precipitation Wind Pressure Humidity
    00:00 -2°C° 0 mm 3 mps 755 mmHg 90%
    01:00 -2°C° 0 mm 3 mps 755 mmHg 90%
    02:00 -2°C° 0 mm 3 mps 755 mmHg 89%
    03:00 -2°C° 0 mm 3 mps 755 mmHg 89%
    04:00 -2°C° 0 mm 3 mps 755 mmHg 89%
    05:00 -2°C° 0 mm 3 mps 755 mmHg 89%
    06:00 -1°C° 0 mm 3 mps 755 mmHg 90%
    07:00 -1°C° 0 mm 3 mps 755 mmHg 90%
    08:00 -1°C° 0 mm 3 mps 755 mmHg 90%
    09:00 -1°C° 0 mm 3 mps 755 mmHg 90%
    10:00 0°C° 0 mm 3 mps 755 mmHg 89%
    11:00 0°C° 0 mm 3 mps 755 mmHg 90%
    12:00 0°C° 0 mm 3 mps 754 mmHg 91%
    13:00 +1°C° 0 mm 2 mps 754 mmHg 92%
    14:00 +1°C° 0 mm 2 mps 754 mmHg 92%
    15:00 -1°C° 0 mm 2 mps 754 mmHg 91%
    16:00 -1°C° 0 mm 2 mps 754 mmHg 91%
    17:00 -2°C° 0 mm 2 mps 754 mmHg 91%
    18:00 -2°C° 0 mm 2 mps 753 mmHg 91%
    19:00 -2°C° 0 mm 2 mps 753 mmHg 91%
    20:00 -2°C° 0 mm 2 mps 753 mmHg 92%
    21:00 -2°C° 0 mm 2 mps 753 mmHg 92%
    22:00 -3°C° 0 mm 2 mps 753 mmHg 92%
    23:00 -2°C° 0 mm 3 mps 753 mmHg 92%
    Show more